sat.trackr.live / text

‹ back to catalog

FORMOSAT 7-1

NORAD 44349 · 2019-036L

PAYLOAD ACTIVE UNKNOWN

§ Identity

Operator
Country
ROC
Launch date
2019-06-25
Launch site
AFETR
Launch vehicle
Mass (kg)
RCS (m²)

External: N2YO · Heavens-Above · Gunter

§ Orbital elements

Epoch: 2026-05-25T04:13:03.294912Z

Period
96.23 min
Inclination
23.9963°
Eccentricity
0.0000397
Mean motion
14.96393556 rev/d
Perigee alt
577.8 km
Apogee alt
578.3 km
Semi-major
6,956.2 km
B*
1.5253e-4
RAAN
187.5188°
Arg perigee
259.9750°
Mean anomaly
100.0706°
Rev number
38,120

§ Raw data

FORMOSAT 7-11 44349U 19036L   26145.17573258  .00002072  00000+0  15253-3 0  99982 44349  23.9963 187.5188 0000397 259.9750 100.0706 14.96393556381201

JSON: /api/v1/satellites/44349 · /tle

For live sub-satellite position, see the globe view (requires WebGL).

§ Visibility from observer

Set your observer location to see the next 7 days of passes ≥ 10°. The values pass through the URL so the page stays shareable.

No JS? Fill the form by hand. The geolocation button needs JavaScript.

§ Radio — SatNOGS DB

ModeDescriptionDownlinkUplink
CW Downlink 400.900 MHz

1 transmitter · refreshed weekly from db.satnogs.org